SAS457 ENBR-ENKB

Flight info

Callsign SAS457
Flight time 0h 34m
Altitude 31000
Route OLDAS DCT TUMIM
Aircraft A320/M-SDE3FGHIRWY/LB1

Departure

Time 2026-04-16 21:20
Airport Bergen Airport, Flesland (ENBR)

Arrival

Time 2026-04-16 21:54
Airport Kristiansund Airport, Kvernberget (ENKB)
Time Latitude Longitude Altitude Speed Heading
2026-04-16 21:00 60.29225 5.22408 153 ft 0 kts 82°
2026-04-16 21:11 60.29222 5.22373 153 ft 4 kts 79°
2026-04-16 21:11 60.29216 5.22321 153 ft 4 kts 72°
2026-04-16 21:12 60.29209 5.22280 153 ft 0 kts 68°
2026-04-16 21:16 60.29235 5.22297 153 ft 8 kts 357°
2026-04-16 21:16 60.29320 5.22265 154 ft 17 kts 349°
2026-04-16 21:16 60.29464 5.22215 155 ft 25 kts 351°
2026-04-16 21:17 60.29664 5.22151 157 ft 33 kts 351°
2026-04-16 21:17 60.29762 5.22036 158 ft 13 kts 324°
2026-04-16 21:17 60.29858 5.21964 159 ft 19 kts 352°
2026-04-16 21:17 60.30015 5.21917 160 ft 27 kts 348°
2026-04-16 21:18 60.30225 5.21840 162 ft 34 kts 352°
2026-04-16 21:18 60.30431 5.21746 164 ft 18 kts 308°
2026-04-16 21:18 60.30412 5.21506 162 ft 18 kts 231°
2026-04-16 21:18 60.30333 5.21485 161 ft 0 kts 170°
2026-04-16 21:19 60.30232 5.21521 160 ft 49 kts 170°
2026-04-16 21:19 60.29654 5.21718 158 ft 115 kts 170°
2026-04-16 21:19 60.28734 5.22021 413 ft 140 kts 171°
2026-04-16 21:20 60.27772 5.22323 1142 ft 139 kts 171°
2026-04-16 21:20 60.26745 5.22666 1658 ft 160 kts 172°
2026-04-16 21:20 60.25564 5.23064 2143 ft 184 kts 172°
2026-04-16 21:20 60.24221 5.23510 2663 ft 208 kts 172°
2026-04-16 21:21 60.22716 5.24010 3317 ft 227 kts 172°
2026-04-16 21:21 60.21124 5.24544 4257 ft 235 kts 172°
2026-04-16 21:21 60.19491 5.25095 5266 ft 241 kts 172°
2026-04-16 21:21 60.17814 5.25659 6246 ft 247 kts 172°
2026-04-16 21:22 60.16083 5.26240 6821 ft 255 kts 172°
2026-04-16 21:22 60.14354 5.26821 7085 ft 255 kts 172°
2026-04-16 21:22 60.12595 5.27294 7359 ft 255 kts 181°
2026-04-16 21:22 60.10878 5.26503 7641 ft 256 kts 206°
2026-04-16 21:23 60.09505 5.24249 7928 ft 260 kts 231°
2026-04-16 21:23 60.08761 5.20932 8215 ft 267 kts 255°
2026-04-16 21:23 60.08482 5.17236 8503 ft 271 kts 264°
2026-04-16 21:23 60.08834 5.13504 8794 ft 280 kts 290°
2026-04-16 21:24 60.10012 5.10346 9087 ft 290 kts 317°
2026-04-16 21:24 60.11824 5.08504 9391 ft 298 kts 342°
2026-04-16 21:24 60.13847 5.07507 9688 ft 300 kts 344°
2026-04-16 21:24 60.15877 5.06554 9982 ft 301 kts 344°
2026-04-16 21:25 60.17943 5.05594 10266 ft 314 kts 344°
2026-04-16 21:25 60.20151 5.04558 10543 ft 333 kts 344°
2026-04-16 21:25 60.22402 5.03499 10815 ft 338 kts 344°
2026-04-16 21:25 60.24701 5.02410 11092 ft 340 kts 343°
2026-04-16 21:26 60.27030 5.01466 11371 ft 343 kts 351°
2026-04-16 21:26 60.29431 5.01366 11652 ft 347 kts
2026-04-16 21:26 60.31844 5.01845 11874 ft 350 kts
2026-04-16 21:26 60.33459 5.02170 12065 ft 353 kts
2026-04-16 21:27 60.35908 5.02659 12929 ft 355 kts
2026-04-16 21:27 60.38376 5.03151 13758 ft 359 kts
2026-04-16 21:27 60.40876 5.03648 14473 ft 362 kts
2026-04-16 21:27 60.43392 5.04153 15215 ft 365 kts
2026-04-16 21:28 60.45928 5.04661 15951 ft 367 kts
2026-04-16 21:28 60.48477 5.05172 16672 ft 370 kts
2026-04-16 21:28 60.51046 5.05686 17418 ft 372 kts
2026-04-16 21:28 60.53634 5.06204 18156 ft 375 kts 360°
2026-04-16 21:29 60.56237 5.06723 18831 ft 378 kts 359°
2026-04-16 21:29 60.58865 5.07248 19479 ft 381 kts 359°
2026-04-16 21:29 60.61515 5.07780 20133 ft 384 kts 359°
2026-04-16 21:29 60.64184 5.08317 20811 ft 386 kts 359°
2026-04-16 21:30 60.66869 5.08861 21512 ft 389 kts 359°
2026-04-16 21:30 60.69568 5.09412 22166 ft 391 kts 359°
2026-04-16 21:30 60.72290 5.09968 22804 ft 394 kts 358°
2026-04-16 21:30 60.74995 5.10516 23440 ft 397 kts 358°
2026-04-16 21:31 60.77757 5.11073 23988 ft 400 kts 358°
2026-04-16 21:31 60.80534 5.11637 24489 ft 403 kts 358°
2026-04-16 21:31 60.83340 5.12215 24975 ft 406 kts 358°
2026-04-16 21:31 60.86164 5.12799 25460 ft 409 kts 359°
2026-04-16 21:32 60.89016 5.13386 25938 ft 413 kts 359°
2026-04-16 21:32 60.91893 5.13976 26419 ft 416 kts 359°
2026-04-16 21:32 60.94787 5.14569 26924 ft 419 kts 359°
2026-04-16 21:32 60.97700 5.15170 27339 ft 423 kts 359°
2026-04-16 21:33 61.00607 5.15773 27741 ft 427 kts 360°
2026-04-16 21:33 61.03571 5.16400 28155 ft 431 kts
2026-04-16 21:33 61.06544 5.17643 28547 ft 441 kts 11°
2026-04-16 21:33 61.09442 5.19895 28948 ft 451 kts 21°
2026-04-16 21:34 61.12233 5.22971 29361 ft 456 kts 24°
2026-04-16 21:34 61.15025 5.26136 29776 ft 459 kts 24°
2026-04-16 21:34 61.17835 5.29317 30206 ft 462 kts 24°
2026-04-16 21:34 61.20673 5.32526 30541 ft 465 kts 25°
2026-04-16 21:35 61.23531 5.35760 30902 ft 469 kts 25°
2026-04-16 21:35 61.26402 5.39016 31088 ft 472 kts 26°
2026-04-16 21:35 61.29252 5.42271 31128 ft 458 kts 26°
2026-04-16 21:36 61.34692 5.48532 31127 ft 445 kts 26°
2026-04-16 21:36 61.40101 5.54755 31127 ft 443 kts 26°
2026-04-16 21:37 61.45504 5.60980 31128 ft 443 kts 26°
2026-04-16 21:37 61.50913 5.67243 31140 ft 446 kts 27°
2026-04-16 21:38 61.56356 5.73564 31138 ft 448 kts 27°
2026-04-16 21:38 61.61802 5.79921 31134 ft 447 kts 27°
2026-04-16 21:38 61.64557 5.83149 31120 ft 459 kts 27°
2026-04-16 21:39 61.67350 5.86420 31116 ft 471 kts 27°
2026-04-16 21:39 61.73121 5.93182 31116 ft 476 kts 26°
2026-04-16 21:40 61.79092 5.99291 31128 ft 476 kts 22°
2026-04-16 21:40 61.85181 6.04852 31108 ft 476 kts 22°
2026-04-16 21:41 61.91257 6.10482 31113 ft 476 kts 23°
2026-04-16 21:41 61.97261 6.16293 31112 ft 477 kts 24°
2026-04-16 21:42 62.03279 6.22230 31113 ft 477 kts 24°
2026-04-16 21:42 62.09307 6.28153 31121 ft 477 kts 25°
2026-04-16 21:43 62.15348 6.34081 31113 ft 478 kts 25°
2026-04-16 21:43 62.21387 6.40053 31121 ft 478 kts 25°
2026-04-16 21:44 62.27418 6.46055 31113 ft 478 kts 25°
2026-04-16 21:44 62.33454 6.52078 31112 ft 478 kts 25°
2026-04-16 21:45 62.39517 6.58011 31121 ft 479 kts 25°
2026-04-16 21:45 62.45636 6.63759 31114 ft 480 kts 26°
2026-04-16 21:46 62.51668 6.69955 31103 ft 480 kts 28°
2026-04-16 21:46 62.57533 6.76643 31103 ft 478 kts 35°
2026-04-16 21:47 62.62750 6.85497 31108 ft 476 kts 41°
2026-04-16 21:47 62.67950 6.94427 31102 ft 476 kts 42°
2026-04-16 21:48 62.73037 7.03091 30899 ft 444 kts 42°
2026-04-16 21:48 62.75443 7.07206 29735 ft 440 kts 43°
2026-04-16 21:48 62.77884 7.11447 27532 ft 457 kts 44°
2026-04-16 21:48 62.80372 7.15817 25433 ft 468 kts 44°
2026-04-16 21:49 62.82933 7.20308 23422 ft 473 kts 44°
2026-04-16 21:49 62.85495 7.24780 21528 ft 468 kts 43°
2026-04-16 21:49 62.88030 7.29190 19874 ft 459 kts 41°
2026-04-16 21:49 62.90511 7.33516 18340 ft 449 kts 40°
2026-04-16 21:50 62.92936 7.37766 16644 ft 442 kts 40°
2026-04-16 21:50 62.95345 7.41691 15181 ft 433 kts 31°
2026-04-16 21:50 62.98156 7.43790 13944 ft 424 kts
2026-04-16 21:50 63.01052 7.43568 12542 ft 412 kts 350°
2026-04-16 21:51 63.03867 7.42638 11060 ft 406 kts 355°
2026-04-16 21:51 63.06624 7.43415 9719 ft 397 kts 20°
2026-04-16 21:51 63.08862 7.46615 8994 ft 370 kts 49°
2026-04-16 21:51 63.10072 7.51167 8774 ft 331 kts 78°
2026-04-16 21:52 63.10243 7.55935 8622 ft 296 kts 96°
2026-04-16 21:52 63.10170 7.60435 7825 ft 295 kts 101°
2026-04-16 21:52 63.09896 7.64953 5568 ft 311 kts 111°
2026-04-16 21:52 63.09330 7.69714 3233 ft 330 kts 94°
2026-04-16 21:53 63.09829 7.74417 1843 ft 303 kts 66°
2026-04-16 21:53 63.10588 7.78460 411 ft 273 kts 72°
2026-04-16 21:53 63.11122 7.81918 245 ft 204 kts 71°
2026-04-16 21:53 63.11429 7.83909 211 ft 58 kts 73°
2026-04-16 21:54 63.11477 7.84330 218 ft 21 kts 76°
2026-04-16 21:54 63.11523 7.84698 220 ft 28 kts 75°
2026-04-16 21:54 63.11537 7.84937 213 ft 6 kts 44°
2026-04-16 21:54 63.11547 7.84826 217 ft 12 kts 254°
2026-04-16 21:55 63.11509 7.84556 217 ft 28 kts 249°
2026-04-16 21:55 63.11430 7.84033 215 ft 39 kts 251°
2026-04-16 21:55 63.11339 7.83469 212 ft 32 kts 250°
2026-04-16 21:55 63.11363 7.83251 212 ft 15 kts 335°
2026-04-16 21:56 63.11412 7.83112 211 ft 12 kts 252°
2026-04-16 21:56 63.11382 7.82908 213 ft 16 kts 251°
2026-04-16 21:56 63.11351 7.82721 211 ft 11 kts 294°
2026-04-16 21:56 63.11369 7.82692 211 ft 0 kts 335°